Regional Weather Roundup
Issued by NWS San Angelo, TX

Home | Current Version | Previous Version | Text Only | Print | Product List | Glossary On
Versions: 1 2 3 4 5 6 7 8 9 10 11 12 13 14 15 16 17 18 19 20 21 22 23 24 25 26 27 28 29 30 31 32 33 34 35 36 37 38 39 40 41 42 43 44 45 46 47 48 49 50
000
ASUS44 KSJT 180510
RWRSJT
WEST CENTRAL TEXAS REGIONAL WEATHER ROUNDUP
NATIONAL WEATHER SERVICE SAN ANGELO TX
1200 AM CDT FRI APR 18 2014

NOTE: "FAIR" INDICATES FEW OR NO CLOUDS BELOW 12,000 FEET WITH NO
SIGNIFICANT WEATHER AND/OR OBSTRUCTIONS TO VISIBILITY.

TXZ049-054-064>066-071>073-076>078-098-099-113-114-127-128-139-140-
154-155-168>170-180600
...LOCATIONS ACROSS WEST CENTRAL TEXAS...

CITY           SKY/WX    TMP DP  RH WIND       PRES   REMARKS
SAN ANGELO     CLOUDY    58  55  90 NE10      30.20R
ABILENE        CLOUDY    55  51  86 N9        30.21R
DYESS AFB      CLOUDY    54  51  89 N7        30.21R
JUNCTION       CLOUDY    60  56  86 NE6       30.17R
SWEETWATER     CLOUDY    53  50  90 N7        30.26R
BROWNWOOD      CLOUDY    59  57  94 NE5       30.20S
COLEMAN        CLOUDY    59  55  85 NE3       30.20S
SONORA         PTCLDY    59  55  88 E6        30.18R
OZONA          FAIR      59  52  77 E7        30.20R
BRADY          NOT AVBL
$$

TEXAS PANHANDLE/OKLAHOMA PANHANDLE

CITY           SKY/WX    TMP DP  RH WIND       PRES   REMARKS
AMARILLO       PTCLDY    38  32  79 SE8       30.25S WCI  32
BORGER         CLOUDY    46  35  65 S6        30.25S
CANADIAN       CLOUDY    51  40  66 S6        30.24F
DALHART        CLEAR     40  33  76 S7        30.23F WCI  35
DUMAS          CLEAR     36  32  87 SE8       30.22F WCI  29
GUYMON         NOT AVBL
HEREFORD       CLEAR     37  32  81 E6        30.24S WCI  33
PAMPA          CLOUDY    45  35  67 SE6       30.25S
PERRYTON       CLOUDY    47  34  61 SE5       30.24S
$$

SOUTHERN PANHANDLE/SOUTH PLAINS/ROLLING PLAINS

CITY           SKY/WX    TMP DP  RH WIND       PRES   REMARKS
LUBBOCK        CLEAR     43  37  79 E7        30.23S WCI  39
SNYDER         CLOUDY    52  49  90 NE10      30.23S
CHILDRESS      CLOUDY    47  46  97 N9        30.26S FOG
SEMINOLE       CLEAR     49  42  75 E9        30.24R
$$

PERMIAN BASIN

CITY           SKY/WX    TMP DP  RH WIND       PRES   REMARKS
MIDLAND        CLEAR     54  46  74 E15       30.21R
ODESSA         CLEAR     54  46  74 E14       30.21R
WINK           CLEAR     59  46  62 E18G25    30.17R
$$

FAR WEST/SOUTHWEST MOUNTAINS/TRANS PECOS

CITY           SKY/WX    TMP DP  RH WIND       PRES   REMARKS
ALPINE         CLEAR     55  30  39 CALM      30.24R
DRYDEN           N/A     63  45  51 NE8       30.12R
EL PASO        CLEAR     66  29  24 E14G22    30.09S
FORT STOCKTON  CLEAR     63  44  50 E10       30.16R
GUADALUPE PASS CLEAR     57  29  34 NE26      30.21S
MARFA          CLEAR     54  30  40 NE7       30.21R
PECOS          CLEAR     61  46  57 NE16      30.16R
$$

DALLAS/FORT WORTH METROPLEX

CITY           SKY/WX    TMP DP  RH WIND       PRES   REMARKS
DFW AIRPORT    LGT RAIN  58  54  86 E5        30.21R FOG
FTW MEACHAM    LGT RAIN  58  54  86 NE8       30.21R
DAL-EXECUTIVE  CLOUDY    60  52  74 NE5       30.20R
GRAND PRAIRIE  CLOUDY    59  52  77 NE3       30.24R
ADDISON        DRIZZLE   58  53  83 E3        30.22S
MESQUITE       CLOUDY    59  51  74 CALM      30.21R
LANCASTER      CLOUDY    60  50  69 NE7       30.21S
$$

NORTH CENTRAL TEXAS

CITY           SKY/WX    TMP DP  RH WIND       PRES   REMARKS
SHRMAN/DENISON CLOUDY    58  49  71 E3        30.22S
GAINESVILLE    CLOUDY    56  52  86 N5        30.25R
BRIDGEPORT     DRIZZLE   55  55  99 CALM      30.24S
DENTON         CLOUDY    57  55  93 CALM      30.21S
WAXAHACHIE     RAIN      58  50  74 NE3       30.22R
GRANBURY       CLOUDY    58  55  89 CALM      30.23R FOG
$$

WESTERN NORTH TEXAS

CITY           SKY/WX    TMP DP  RH WIND       PRES   REMARKS
WICHITA FALLS  CLOUDY    55  52  89 NE5       30.23R
VERNON         CLOUDY    52  49  90 CALM      30.25S
BRECKENRIDGE   CLOUDY    60  55  84 SE8       30.20S
COMANCHE       DRIZZLE   58  58  99 E5        30.20R
$$

CENTRAL AND SOUTH CENTRAL TEXAS

CITY           SKY/WX    TMP DP  RH WIND       PRES   REMARKS
AUSTIN/BERGSTM CLOUDY    61  60  97 CALM      30.16S FOG
WACO           LGT RAIN  60  57  89 N9        30.18R
HILLSBORO      RAIN      59  53  79 N5        30.20R
TEMPLE         CLOUDY    61  55  82 CALM      30.21R
KILLEEN-GRAY   CLOUDY    61  59  94 E3        30.18R
FORT HOOD      CLOUDY    63  59  88 CALM      30.18R
GEORGETOWN     CLOUDY    61  59  94 CALM      30.17S
LAGO VISTA     FOG       61  59  94 E3        30.18R VSB 3/4
SAN MARCOS     CLOUDY    61  57  88 E5        30.18F
NEW BRAUNFELS  CLOUDY    61  61 100 E6        30.16S FOG
RANDOLPH AFB   DRIZZLE   61  59  94 SE10      30.17R FOG
SAN ANTONIO    LGT RAIN  63  61  93 E5        30.17R FOG
STINSON        LGT RAIN  63  61  93 E6        30.15R FOG
PLEASANTON     NOT AVBL
LA GRANGE      CLOUDY    62  60  94 CALM      30.14F
GIDDINGS       CLOUDY    59  59  98 CALM      30.20F FOG
$$

EAST TEXAS

CITY           SKY/WX    TMP DP  RH WIND       PRES   REMARKS
PARIS          CLOUDY    55  46  71 N5        30.21S
CLARKSVILLE    CLOUDY    59  44  57 CALM      30.19F
TYLER          CLOUDY    62  46  55 NE3       30.19R
LONGVIEW       MOCLDY    58  50  75 CALM      30.18R
PALESTINE      CLOUDY    64  48  57 CALM      30.20S
NACOGDOCHES    CLOUDY    55  48  76 CALM      30.18S
$$

TEXAS HILL COUNTRY AND EDWARDS PLATEAU

CITY           SKY/WX    TMP DP  RH WIND       PRES   REMARKS
LLANO          CLOUDY    63  59  88 CALM      30.21S
HORSESHOE BAY  CLOUDY    60  60 100 CALM      30.17R
KERRVILLE      CLOUDY    60  57  91 E6        30.18R
FREDERICKSBRG  CLOUDY    59  57  92 CALM      30.18R
ROCKSPRINGS    MOCLDY    61  55  82 E8        30.19R
HONDO          CLOUDY    66  60  81 E13       30.18R
UVALDE         CLOUDY    65  62  87 E12       30.16R
DEL RIO        PTCLDY    67  58  72 E16       30.12R
$$

SOUTHEAST TEXAS

CITY           SKY/WX    TMP DP  RH WIND       PRES   REMARKS
COLLEGE STN    CLOUDY    61  60  97 SW3       30.16F FOG
CALDWELL       MOCLDY    61  61 100 S6        30.20S FOG
CROCKETT       CLOUDY    64  54  68 S5        30.20S
BRENHAM        MOCLDY    61  59  94 NW3       30.17S FOG
HUNTSVILLE     CLOUDY    64  53  67 SE5       30.17R
CONROE         CLOUDY    62  56  80 CALM      30.17S
HOUSTON BUSH   MOCLDY    63  54  72 NE6       30.15S
HOUSTON HOBBY  MOCLDY    63  54  72 E6        30.14S
PERLAND        MOCLDY    62  54  74 N5        30.15S
WHARTON        CLOUDY    61  57  85 NE5       30.15S
$$

THE UPPER TEXAS COAST

CITY           SKY/WX    TMP DP  RH WIND       PRES   REMARKS
ORANGE         CLEAR     56  55  94 N3        30.16S
PORT ARTHUR    CLOUDY    60  54  80 N7        30.14F
GALVESTON      CLOUDY    62  58  86 N9        30.14S
ANGLETON       CLOUDY    63  58  83 NE7       30.13S
BAY CITY       CLOUDY    64  60  88 NE7       30.13S
$$

TEXAS COASTAL BEND, RIO GRANDE PLAINS DEEP SOUTH TEXAS

CITY           SKY/WX    TMP DP  RH WIND       PRES   REMARKS
VICTORIA       CLOUDY    63  58  83 N5        30.15R
BEEVILLE       CLOUDY    64  64 100 E8        30.14R
ROCKPORT       CLOUDY    66  63  90 E12       30.12R
PORT ARANSAS   CLOUDY    65  64  94 E12       30.11R
PORT LAVACA    CLOUDY    63  59  88 NE7       30.13S
CORPUS CHRISTI DRIZZLE   67  62  84 E15       30.12R
KINGSVILLE NAS CLOUDY    66  65  96 NE8       30.12R
COTULLA        CLOUDY    66  61  84 E12       30.14R
LAREDO         CLOUDY    70  62  75 E16       30.14R
BROWNSVILLE    CLOUDY    70  67  90 NE6       30.07R
PORT ISABEL    CLOUDY    70  66  87 NE8       30.07R
HEBBRONVILLE   CLOUDY    64  63  94 E9        30.13R FOG
MCALLEN        LGT RAIN  69  66  90 E10       30.08R
WESLACO        DRIZZLE   68  65  90 E5        30.08R
FALFURRIAS     CLOUDY    67  65  92 NE8       30.11R
EDINBURG       CLOUDY    69  66  89 E8        30.09R
$$



USA.gov is the U.S. government's official web portal to all federal, state and local government web resources and services.